Torna al catalogo

STARLINK-31605

AttivoComunicazioniVLEO
NORAD 59348·PAYLOAD·🇺🇸 United States

Lanciato Mar 31, 2024 da Cape Canaveral Space Force Station

Loading…

Prossimi Passaggi (prossime 24 ore)

TLE

AggiornatoSource: CelesTrak SupGP

Epoca: Sep 15, 2026, 03:02 UTC

1 59348C 24060A   26258.12687500 -.00032469  00000+0 -11759-2 0  2581
2 59348  42.9991 259.3545 0001306 269.1942 249.7829 15.27597076    12

Traccia STARLINK-31605 in tempo reale con AllMySat

Download on the App Store